Tracking 26933 objects as of 5-Feb-2023
HD Live streaming from Space Station
objects crossing your sky now

TIANHUI 2-02B

Track TIANHUI 2-02B now!
10-day predictions


NORAD ID: 49072
Int'l Code: 2021-074B
Perigee: 521.4 km
Apogee: 524.0 km
Inclination: 97.5 °
Period: 94.9 minutes
Semi major axis: 6893 km
RCS: Unknown
Launch date: August 18, 2021
Source: People's Republic of China (PRC)
Launch site: Taiyaun Space Center, China (TSC)
Your satellite tracking list
Your tracking list is empty




NASA's NSSDC Master Catalog

Two Line Element Set (TLE):
1 49072U 21074B   23036.41253741  .00001744  00000-0  92193-4 0  9991
2 49072  97.4600  41.5679 0001840  96.6010  39.3888 15.16789981 81167
Source of the keplerian elements: AFSPC